| time (UTC) | temp C | wind direction | speed KPH | gust KPH | rain 1hr cm | rain 24hr cm | rain mn cm | humidity % | barometer mb |
| 20260506104016 | 13 | 68 | 11.3 | 22.5 | 0.00 | 0.00 | 0.00 | 77 | 1010.6 |
| 20260506103016 | 13 | 68 | 19.3 | 25.7 | 0.00 | 0.00 | 0.00 | 76 | 1010.3 |
| 20260506102016 | 14 | 68 | 11.3 | 19.3 | 0.00 | 0.00 | 0.00 | 76 | 1010.7 |
| 20260506101016 | 14 | 45 | 8.0 | 17.7 | 0.00 | 0.00 | 0.00 | 75 | 1010.7 |
| 20260506100016 | 14 | 45 | 8.0 | 14.5 | 0.00 | 0.00 | 0.00 | 75 | 1010.3 |
| 20260506095016 | 15 | 45 | 9.7 | 20.9 | 0.00 | 0.00 | 0.00 | 74 | 1010.0 |
| 20260506094017 | 15 | 45 | 6.4 | 12.9 | 0.00 | 0.00 | 0.00 | 74 | 1010.2 |
| 20260506093016 | 15 | 23 | 6.4 | 12.9 | 0.00 | 0.00 | 0.00 | 74 | 1010.2 |
| 20260506092016 | 15 | 45 | 4.8 | 8.0 | 0.00 | 0.00 | 0.00 | 75 | 1009.9 |
| 20260506091016 | 15 | 23 | 4.8 | 8.0 | 0.00 | 0.00 | 0.00 | 75 | 1009.4 |
| 20260506090016 | 15 | 23 | 4.8 | 9.7 | 0.00 | 0.00 | 0.00 | 74 | 1009.7 |
| 20260506085016 | 16 | 23 | 6.4 | 9.7 | 0.00 | 0.00 | 0.00 | 73 | 1009.7 |
| 20260506084016 | 16 | 45 | 8.0 | 14.5 | 0.00 | 0.00 | 0.00 | 73 | 1009.5 |
| 20260506083017 | 16 | 23 | 4.8 | 8.0 | 0.00 | 0.00 | 0.00 | 73 | 1010.1 |
| 20260506082016 | 16 | 45 | 6.4 | 11.3 | 0.00 | 0.00 | 0.00 | 72 | 1009.8 |
| 20260506081016 | 17 | 45 | 6.4 | 11.3 | 0.00 | 0.00 | 0.00 | 72 | 1009.9 |
| 20260506073016 | 18 | 45 | 8.0 | 14.5 | 0.00 | 0.00 | 0.00 | 71 | 1009.8 |
| 20260506072016 | 18 | 68 | 8.0 | 14.5 | 0.00 | 0.00 | 0.00 | 71 | 1009.6 |
| 20260506071016 | 18 | 68 | 12.9 | 17.7 | 0.00 | 0.00 | 0.00 | 70 | 1009.9 |
| 20260506062020 | 20 | 68 | 9.7 | 17.7 | 0.00 | 0.00 | 0.00 | 65 | 1009.2 |
| 20260506061016 | 20 | 45 | 8.0 | 16.1 | 0.00 | 0.00 | 0.00 | 64 | 1008.9 |
| 20260506051016 | 22 | 23 | 4.8 | 6.4 | 0.00 | 0.00 | 0.00 | 47 | 1008.7 |
| 20260506045016 | 22 | 68 | 1.6 | 4.8 | 0.00 | 0.00 | 0.00 | 45 | 1008.5 |
| 20260506044016 | 22 | 68 | 6.4 | 9.7 | 0.00 | 0.00 | 0.00 | 46 | 1008.3 |
| 20260506043016 | 22 | 113 | 1.6 | 3.2 | 0.00 | 0.00 | 0.00 | 45 | 1008.2 |
| 20260506042016 | 22 | 135 | 1.6 | 3.2 | 0.00 | 0.00 | 0.00 | 48 | 1008.2 |
| 20260506041016 | 23 | 0.0 | 0.0 | 0.00 | 0.00 | 0.00 | 41 | 1008.1 | |
| 20260506040016 | 22 | 0.0 | 3.2 | 0.00 | 0.00 | 0.00 | 47 | 1008.2 | |
| 20260506035016 | 22 | 0.0 | 1.6 | 0.00 | 0.00 | 0.00 | 45 | 1007.9 | |
| 20260506034016 | 24 | 293 | 1.6 | 3.2 | 0.00 | 0.00 | 0.00 | 37 | 1007.9 |
| 20260506033016 | 25 | 0.0 | 0.0 | 0.00 | 0.00 | 0.00 | 33 | 1008.0 | |
| 20260506032016 | 25 | 0.0 | 0.0 | 0.00 | 0.00 | 0.00 | 32 | 1007.9 | |
| 20260506031016 | 25 | 0.0 | 0.0 | 0.00 | 0.00 | 0.00 | 31 | 1007.6 | |
| 20260506030016 | 26 | 0.0 | 0.0 | 0.00 | 0.00 | 0.00 | 30 | 1007.6 | |
| 20260506025016 | 26 | 0.0 | 3.2 | 0.00 | 0.00 | 0.00 | 29 | 1007.8 | |
| 20260506024017 | 26 | 0.0 | 0.0 | 0.00 | 0.00 | 0.00 | 30 | 1007.6 | |
| 20260506023016 | 26 | 0.0 | 0.0 | 0.00 | 0.00 | 0.00 | 30 | 1007.5 | |
| 20260506022016 | 27 | 0.0 | 0.0 | 0.00 | 0.00 | 0.00 | 29 | 1007.4 | |
| 20260506021016 | 27 | 0.0 | 0.0 | 0.00 | 0.00 | 0.00 | 27 | 1007.4 | |
| 20260506020017 | 27 | 0.0 | 0.0 | 0.00 | 0.00 | 0.00 | 27 | 1007.2 | |
| 20260506015016 | 27 | 0.0 | 3.2 | 0.00 | 0.00 | 0.00 | 26 | 1007.0 | |
| 20260506014017 | 28 | 0.0 | 3.2 | 0.00 | 0.00 | 0.00 | 25 | 1006.8 | |
| 20260506013016 | 28 | 293 | 1.6 | 3.2 | 0.00 | 0.00 | 0.00 | 25 | 1006.9 |
| 20260506012017 | 29 | 293 | 1.6 | 3.2 | 0.00 | 0.00 | 0.00 | 25 | 1006.5 |
| 20260506011017 | 29 | 270 | 1.6 | 6.4 | 0.00 | 0.00 | 0.00 | 27 | 1006.4 |
| 20260506010016 | 30 | 293 | 3.2 | 9.7 | 0.00 | 0.00 | 0.00 | 27 | 1006.5 |
| 20260506005016 | 30 | 270 | 12.9 | 24.1 | 0.00 | 0.00 | 0.00 | 26 | 1006.3 |
| 20260506004016 | 30 | 270 | 4.8 | 9.7 | 0.00 | 0.00 | 0.00 | 28 | 1006.1 |
| 20260506003017 | 31 | 248 | 4.8 | 6.4 | 0.00 | 0.00 | 0.00 | 27 | 1006.0 |
| 20260506002016 | 30 | 248 | 4.8 | 6.4 | 0.00 | 0.00 | 0.00 | 28 | 1006.0 |
| 20260506001016 | 30 | 270 | 4.8 | 9.7 | 0.00 | 0.00 | 0.00 | 28 | 1005.9 |
| 20260506000016 | 31 | 270 | 4.8 | 11.3 | 0.00 | 0.00 | 0.00 | 27 | 1006.0 |
| 20260505235016 | 31 | 248 | 6.4 | 11.3 | 0.00 | 0.00 | 0.00 | 25 | 1005.8 |
| 20260505234017 | 32 | 248 | 4.8 | 9.7 | 0.00 | 0.00 | 0.00 | 25 | 1005.9 |
| 20260505233016 | 32 | 270 | 3.2 | 6.4 | 0.00 | 0.00 | 0.00 | 25 | 1006.0 |
| 20260505232017 | 32 | 270 | 6.4 | 14.5 | 0.00 | 0.00 | 0.00 | 25 | 1006.0 |
| 20260505231017 | 32 | 270 | 8.0 | 16.1 | 0.00 | 0.00 | 0.00 | 24 | 1006.0 |
| 20260505230017 | 32 | 248 | 6.4 | 16.1 | 0.00 | 0.00 | 0.00 | 24 | 1006.0 |
| 20260505225017 | 32 | 270 | 9.7 | 17.7 | 0.00 | 0.00 | 0.00 | 23 | 1006.2 |
| 20260505224016 | 32 | 270 | 6.4 | 12.9 | 0.00 | 0.00 | 0.00 | 25 | 1006.3 |
| 20260505223017 | 32 | 270 | 8.0 | 14.5 | 0.00 | 0.00 | 0.00 | 24 | 1006.2 |
| 20260505222016 | 32 | 293 | 6.4 | 14.5 | 0.00 | 0.00 | 0.00 | 24 | 1006.3 |
| 20260505221016 | 32 | 270 | 9.7 | 16.1 | 0.00 | 0.00 | 0.00 | 23 | 1006.3 |
| 20260505220016 | 32 | 270 | 14.5 | 24.1 | 0.00 | 0.00 | 0.00 | 23 | 1006.4 |
| 20260505215016 | 33 | 248 | 11.3 | 16.1 | 0.00 | 0.00 | 0.00 | 23 | 1006.3 |
| 20260505214016 | 33 | 270 | 12.9 | 20.9 | 0.00 | 0.00 | 0.00 | 24 | 1006.3 |
| 20260505213017 | 33 | 270 | 8.0 | 16.1 | 0.00 | 0.00 | 0.00 | 24 | 1006.4 |
| 20260505212016 | 33 | 270 | 8.0 | 17.7 | 0.00 | 0.00 | 0.00 | 24 | 1006.5 |
| 20260505211016 | 33 | 270 | 9.7 | 19.3 | 0.00 | 0.00 | 0.00 | 27 | 1006.7 |
| 20260505210017 | 33 | 270 | 9.7 | 19.3 | 0.00 | 0.00 | 0.00 | 27 | 1006.8 |
| 20260505205016 | 33 | 270 | 9.7 | 19.3 | 0.00 | 0.00 | 0.00 | 27 | 1006.9 |
| 20260505204016 | 33 | 270 | 8.0 | 19.3 | 0.00 | 0.00 | 0.00 | 27 | 1007.0 |
| 20260505203016 | 33 | 293 | 9.7 | 22.5 | 0.00 | 0.00 | 0.00 | 27 | 1007.0 |
| 20260505202017 | 33 | 270 | 11.3 | 19.3 | 0.00 | 0.00 | 0.00 | 25 | 1007.0 |
| 20260505201016 | 32 | 270 | 11.3 | 20.9 | 0.00 | 0.00 | 0.00 | 26 | 1007.0 |
| 20260505200017 | 32 | 270 | 11.3 | 22.5 | 0.00 | 0.00 | 0.00 | 26 | 1007.2 |
| 20260505195016 | 32 | 270 | 9.7 | 22.5 | 0.00 | 0.00 | 0.00 | 27 | 1007.3 |
| 20260505194017 | 32 | 270 | 8.0 | 22.5 | 0.00 | 0.00 | 0.00 | 28 | 1007.4 |
| 20260505193017 | 32 | 293 | 4.8 | 16.1 | 0.00 | 0.00 | 0.00 | 31 | 1007.4 |
| 20260505192017 | 32 | 270 | 11.3 | 17.7 | 0.00 | 0.00 | 0.00 | 31 | 1007.4 |
| 20260505191016 | 31 | 270 | 9.7 | 20.9 | 0.00 | 0.00 | 0.00 | 32 | 1007.7 |
| 20260505190016 | 31 | 293 | 8.0 | 20.9 | 0.00 | 0.00 | 0.00 | 33 | 1007.7 |
| 20260505185016 | 32 | 270 | 9.7 | 19.3 | 0.00 | 0.00 | 0.00 | 34 | 1007.8 |
| 20260505184017 | 31 | 270 | 6.4 | 12.9 | 0.00 | 0.00 | 0.00 | 35 | 1007.9 |
| 20260505183017 | 31 | 293 | 8.0 | 17.7 | 0.00 | 0.00 | 0.00 | 38 | 1008.0 |
| 20260505182017 | 31 | 270 | 6.4 | 16.1 | 0.00 | 0.00 | 0.00 | 41 | 1008.2 |
| 20260505181020 | 31 | 248 | 4.8 | 11.3 | 0.00 | 0.00 | 0.00 | 45 | 1008.3 |
| 20260505180020 | 30 | 248 | 9.7 | 20.9 | 0.00 | 0.00 | 0.00 | 43 | 1008.4 |
| 20260505175020 | 30 | 270 | 8.0 | 16.1 | 0.00 | 0.00 | 0.00 | 45 | 1008.5 |
| 20260505174016 | 29 | 270 | 11.3 | 17.7 | 0.00 | 0.00 | 0.00 | 49 | 1008.6 |
| 20260505173017 | 28 | 270 | 8.0 | 14.5 | 0.00 | 0.00 | 0.00 | 52 | 1008.5 |
| 20260505172016 | 28 | 248 | 8.0 | 17.7 | 0.00 | 0.00 | 0.00 | 56 | 1008.6 |
| 20260505171016 | 27 | 248 | 8.0 | 17.7 | 0.00 | 0.00 | 0.00 | 57 | 1008.6 |
| 20260505170016 | 27 | 248 | 9.7 | 20.9 | 0.00 | 0.00 | 0.00 | 60 | 1008.5 |
| 20260505165016 | 27 | 248 | 9.7 | 17.7 | 0.00 | 0.00 | 0.00 | 63 | 1008.5 |
| 20260505164017 | 26 | 248 | 12.9 | 20.9 | 0.00 | 0.00 | 0.00 | 63 | 1008.5 |
| 20260505163016 | 26 | 270 | 11.3 | 20.9 | 0.00 | 0.00 | 0.00 | 64 | 1008.4 |
| 20260505162017 | 26 | 248 | 11.3 | 17.7 | 0.00 | 0.00 | 0.00 | 66 | 1008.4 |
| 20260505161016 | 25 | 248 | 12.9 | 24.1 | 0.00 | 0.00 | 0.00 | 69 | 1008.3 |
| 20260505153016 | 24 | 248 | 14.5 | 22.5 | 0.00 | 0.00 | 0.00 | 73 | 1008.0 |
| 20260505152016 | 23 | 248 | 11.3 | 20.9 | 0.00 | 0.00 | 0.00 | 74 | 1008.1 |
| 20260505151017 | 23 | 225 | 11.3 | 20.9 | 0.00 | 0.00 | 0.00 | 75 | 1008.1 |
| 20260505125017 | 20 | 225 | 4.8 | 12.9 | 0.00 | 0.00 | 0.00 | 86 | 1007.6 |
| 20260505124017 | 20 | 225 | 6.4 | 14.5 | 0.00 | 0.00 | 0.00 | 86 | 1007.5 |
| 20260505123017 | 20 | 225 | 4.8 | 11.3 | 0.00 | 0.00 | 0.00 | 86 | 1007.5 |
| 20260505122016 | 20 | 248 | 8.0 | 19.3 | 0.00 | 0.00 | 0.00 | 86 | 1007.6 |
| 20260505121016 | 20 | 225 | 6.4 | 14.5 | 0.00 | 0.00 | 0.00 | 85 | 1007.4 |
| 20260505120016 | 20 | 248 | 8.0 | 16.1 | 0.00 | 0.00 | 0.00 | 84 | 1007.4 |
| 20260505115016 | 20 | 248 | 8.0 | 19.3 | 0.00 | 0.00 | 0.00 | 84 | 1007.2 |
| 20260505114016 | 20 | 225 | 8.0 | 17.7 | 0.00 | 0.00 | 0.00 | 84 | 1007.1 |
| 20260505113016 | 20 | 248 | 4.8 | 14.5 | 0.00 | 0.00 | 0.00 | 84 | 1007.0 |
| 20260505112016 | 20 | 248 | 6.4 | 19.3 | 0.00 | 0.00 | 0.00 | 83 | 1007.2 |
| 20260505111017 | 20 | 225 | 8.0 | 16.1 | 0.00 | 0.00 | 0.00 | 83 | 1007.0 |